Regional Weather Roundup
Issued by NWS

Home | Current Version | Previous Version | Graphics & Text | Print | Product List | Glossary On
Versions: 1 2 3 4 5 6 7 8 9 10 11 12 13 14 15 16 17 18 19 20 21 22 23 24 25 26 27 28 29 30 31 32 33 34 35 36 37 38 39 40 41 42 43 44 45 46 47 48 49 50
000
ASUS43 KTOP 222308
RWRKS

WEATHER ROUNDUP FOR KANSAS
NATIONAL WEATHER SERVICE GOODLAND KS
500 PM CST THU FEB 22 2018

NOTE:  "FAIR" INDICATES FEW OR NO CLOUDS BELOW 12,000 FEET WITH NO
SIGNIFICANT WEATHER AND/OR OBSTRUCTIONS TO VISIBILITY.

KSZ001>006-013>018-027>032-041>047-230000-
NORTHWEST KANSAS

CITY           SKY/WX    TMP DP  RH WIND       PRES   REMARKS
GOODLAND       SUNNY     32  18  56 SE10      29.98S WCI  24
HAYS           CLOUDY    29  27  92 CALM      30.12F FOG
HILL CITY      CLOUDY    26  25  96 S5        30.11F FOG
RUSSELL        CLOUDY    31  30  96 S3        30.12S FOG
$$

KSZ061>065-074>080-084>089-230000-
SOUTHWEST KANSAS

CITY           SKY/WX    TMP DP  RH WIND       PRES   REMARKS
DODGE CITY     CLOUDY    30  27  88 S12       30.07S FOG     WCI  20
ELKHART        SUNNY     56  26  31 S23       29.92F
GARDEN CITY    MOSUNNY   35  24  64 S14G23    30.01F WCI  26
GREAT BEND     CLOUDY    30  28  92 S5        30.13R
LIBERAL        SUNNY     41  27  57 SE17      30.01F
PRATT          CLOUDY    30  29  93 SE8       30.12S FOG
$$

KSZ066>073-081>083-090>101-230000-
SOUTHEAST KANSAS

CITY           SKY/WX    TMP DP  RH WIND       PRES   REMARKS
CHANUTE        LGT RAIN  36  35  96 SE6       30.18R
COFFEYVILLE    LGT RAIN  38  38 100 W6        30.20S FOG
HUTCHINSON     CLOUDY    31  30  96 SE6       30.15S FOG
MEDICINE LODGE   N/A     30  29  96 S5        30.14F
NEWTON         CLOUDY    31  29  92 S5        30.16F FOG
PARSONS        LGT RAIN  37  37 100 SW5       30.21R FOG
WICHITA INTL   FRZ DRZL  32  31  96 S7        30.17S FOG
WICHITA JABRA  CLOUDY    31  31 100 S6        30.16F FOG
WICHITA MCCONL MIX PCPN  32  32 100 CALM      30.16
WINFIELD       CLOUDY    32  32 100 CALM      30.19F FOG
$$

KSZ007>012-019>026-033>040-048>060-102>105-230000-
NORTHEAST KANSAS

CITY           SKY/WX    TMP DP  RH WIND       PRES   REMARKS
CONCORDIA      FRZ RAIN  29  29 100 S7        30.15  FOG
EMPORIA        MIX PCPN  32  31  96 S6        30.17S FOG
LAWRENCE       CLOUDY    33  32  96 E7        30.19R FOG
MANHATTAN      CLOUDY    31  30  96 CALM      30.19R FOG
MARYSVILLE     RAIN      32  30  93 E6        30.14F
OLATHE IND     CLOUDY    33  32  96 SE9       30.18S
OLATHE EXE     CLOUDY    32  32 100 E9        30.17F FOG
SALINA         CLOUDY    32  31  96 SE6       30.17S FOG
TOPEKA BILLARD CLOUDY    33  32  96 E7        30.19R FOG
TOPEKA FORBES  CLOUDY    33  32  96 E6        30.17S FOG
$$




USA.gov is the U.S. government's official web portal to all federal, state and local government web resources and services.